CW7536 Weather Reports


time (UTC)temp
C
wind
direction
speed
KPH
gust
KPH
rain 1hr
cm
rain 24hr
cm
rain mn
cm
humidity
%
barometer
mb
20260504004539 11 274 0.0 0.0 0.00 0.00 0.00 44 1012.0
20260504003025 12 274 0.0 0.0 0.00 0.00 0.00 40 1011.8
20260504001524 12 274 0.0 3.2 0.00 0.00 0.00 38 1011.6
20260504000024 13 292 0.0 4.8 0.00 0.00 0.00 36 1011.3
20260503234523 13 241 0.0 1.6 0.00 0.00 0.00 36 1011.1
20260503233023 13 261 0.0 0.0 0.00 0.00 0.00 34 1011.0
20260503231521 14 264 0.0 3.2 0.00 0.00 0.00 33 1010.8
20260503230021 14 6 0.0 4.8 0.00 0.00 0.00 32 1010.9
20260503224520 15 326 1.6 8.0 0.00 0.00 0.00 30 1010.7
20260503223019 15 44 0.0 6.4 0.00 0.00 0.00 30 1010.6
20260503221516 15 270 0.0 8.0 0.00 0.00 0.00 31 1010.6
20260503220015 15 305 0.0 6.4 0.00 0.00 0.00 30 1010.5
20260503214515 15 24 0.0 11.3 0.00 0.00 0.00 31 1010.6
20260503213018 14 333 0.0 4.8 0.00 0.00 0.00 29 1010.6
20260503211513 14 253 0.0 9.7 0.00 0.00 0.00 29 1010.6
20260503210012 14 311 0.0 9.7 0.00 0.00 0.00 30 1010.5
20260503204519 14 328 3.2 14.5 0.00 0.00 0.00 30 1010.4
20260503203014 15 259 1.6 9.7 0.00 0.00 0.00 30 1010.7
20260503201507 14 323 3.2 16.1 0.00 0.00 0.00 32 1010.7
20260503200009 15 261 3.2 16.1 0.00 0.00 0.00 32 1010.9
20260503194505 14 214 1.6 9.7 0.00 0.00 0.00 33 1011.1
20260503193002 13 11 1.6 11.3 0.00 0.00 0.00 33 1011.0
20260503191502 13 352 1.6 8.0 0.00 0.00 0.00 33 1011.2
20260503190106 13 321 0.0 6.4 0.00 0.00 0.00 34 1011.2
20260503184559 13 298 1.6 12.9 0.00 0.00 0.00 35 1011.4
20260503183115 13 250 1.6 30.6 0.00 0.00 0.00 35 1011.5
20260503183003 13 319 3.2 30.6 0.00 0.00 0.00 35 1011.4
20260503181619 12 231 1.6 12.9 0.00 0.00 0.00 38 1011.4
20260503180051 12 279 4.8 19.3 0.00 0.00 0.00 39 1011.7
20260503174548 12 347 4.8 12.9 0.00 0.00 0.00 39 1011.8
20260503173053 11 295 0.0 9.7 0.00 0.00 0.00 41 1012.1
20260503171543 11 311 3.2 11.3 0.00 0.00 0.00 40 1012.3
20260503081602 7 5 0.0 1.6 0.00 0.00 0.00 54 1011.0
20260503080106 7 329 0.0 1.6 0.00 0.00 0.00 54 1010.9
20260503071605 7 8 0.0 8.0 0.00 0.00 0.00 53 1010.9
20260503070112 7 347 0.0 1.6 0.00 0.00 0.00 53 1010.9
20260503060108 8 14 0.0 1.6 0.00 0.00 0.00 50 1011.1
20260503054545 8 24 0.0 3.2 0.00 0.00 0.00 49 1011.2
20260503053044 8 23 0.0 0.0 0.00 0.00 0.00 50 1011.2
20260503051544 8 6 0.0 3.2 0.00 0.00 0.00 49 1011.4
20260503050040 8 316 0.0 1.6 0.00 0.00 0.00 48 1011.4
20260503044542 9 25 0.0 3.2 0.00 0.00 0.00 47 1011.4
20260503043040 9 193 0.0 1.6 0.00 0.00 0.00 46 1011.6
20260503041535 9 349 0.0 1.6 0.00 0.00 0.00 46 1011.5
20260503040033 10 338 0.0 3.2 0.00 0.00 0.00 45 1011.6
20260503034528 10 333 0.0 6.4 0.00 0.00 0.00 45 1011.5
20260503033022 10 25 0.0 1.6 0.00 0.00 0.00 45 1011.4
20260503031518 10 25 0.0 1.6 0.00 0.00 0.00 46 1011.3
20260503030014 10 25 0.0 1.6 0.00 0.00 0.00 45 1011.4
20260503024509 10 25 0.0 1.6 0.00 0.00 0.00 45 1011.4
20260503023005 10 306 0.0 1.6 0.00 0.00 0.00 44 1011.4
20260503021601 10 8 0.0 0.0 0.00 0.00 0.00 44 1011.6
20260503020055 11 15 0.0 0.0 0.00 0.00 0.00 43 1011.7
20260503014551 11 47 0.0 1.6 0.00 0.00 0.00 43 1011.9
20260503013054 11 47 0.0 0.0 0.00 0.00 0.00 44 1011.8
20260503011547 11 47 0.0 1.6 0.00 0.00 0.00 43 1011.6
20260503010054 11 48 0.0 1.6 0.00 0.00 0.00 44 1011.5